SWA599 MYNN-KMCO

Flight info

Callsign SWA599
Flight time 1h 2m
Altitude 32000
Route PEACH DCT CCLUB MUNGI1
Aircraft B738/M-SDE2E3FGHIRWXY/LB1

Departure

Time 2026-04-25 00:59
Airport Lynden Pindling International Airport (MYNN)

Arrival

Time 2026-04-25 02:01
Airport Orlando International Airport (KMCO)
Time Latitude Longitude Altitude Speed Heading
2026-04-25 00:44 25.04769 -77.46566 11 ft 0 kts 183°
2026-04-25 00:54 25.04767 -77.46567 11 ft 2 kts 190°
2026-04-25 00:54 25.04750 -77.46588 11 ft 6 kts 253°
2026-04-25 00:55 25.04739 -77.46656 11 ft 12 kts 264°
2026-04-25 00:55 25.04713 -77.46743 11 ft 12 kts 253°
2026-04-25 00:55 25.04749 -77.46820 11 ft 12 kts 315°
2026-04-25 00:55 25.04805 -77.46884 11 ft 11 kts 315°
2026-04-25 00:56 25.04861 -77.46945 11 ft 11 kts 314°
2026-04-25 00:56 25.04913 -77.47005 12 ft 11 kts 314°
2026-04-25 00:56 25.04967 -77.47061 11 ft 10 kts 319°
2026-04-25 00:56 25.05017 -77.47117 12 ft 10 kts 311°
2026-04-25 00:57 25.05067 -77.47178 11 ft 12 kts 313°
2026-04-25 00:57 25.05130 -77.47246 13 ft 13 kts 315°
2026-04-25 00:57 25.05197 -77.47322 11 ft 15 kts 309°
2026-04-25 00:57 25.05220 -77.47428 12 ft 14 kts 259°
2026-04-25 00:58 25.05177 -77.47518 13 ft 9 kts 219°
2026-04-25 00:58 25.05120 -77.47491 12 ft 11 kts 135°
2026-04-25 00:58 25.04960 -77.47315 10 ft 63 kts 135°
2026-04-25 00:58 25.04511 -77.46817 14 ft 121 kts 135°
2026-04-25 00:59 25.03798 -77.46037 58 ft 162 kts 135°
2026-04-25 00:59 25.02985 -77.45109 490 ft 177 kts 135°
2026-04-25 00:59 25.02161 -77.43965 750 ft 205 kts 115°
2026-04-25 00:59 25.01939 -77.42347 929 ft 229 kts 81°
2026-04-25 01:00 25.02624 -77.40724 1293 ft 245 kts 49°
2026-04-25 01:00 25.04070 -77.39661 1837 ft 259 kts 18°
2026-04-25 01:00 25.05887 -77.39642 2475 ft 269 kts 341°
2026-04-25 01:00 25.07412 -77.40787 3223 ft 271 kts 306°
2026-04-25 01:01 25.08254 -77.42617 4114 ft 265 kts 291°
2026-04-25 01:01 25.08942 -77.44510 4897 ft 267 kts 291°
2026-04-25 01:01 25.09673 -77.46399 5651 ft 269 kts 293°
2026-04-25 01:01 25.10503 -77.48253 6401 ft 271 kts 298°
2026-04-25 01:02 25.11522 -77.50004 7131 ft 272 kts 305°
2026-04-25 01:02 25.12720 -77.51643 7824 ft 276 kts 311°
2026-04-25 01:02 25.14046 -77.53173 8531 ft 278 kts 315°
2026-04-25 01:02 25.15473 -77.54630 9245 ft 281 kts 317°
2026-04-25 01:03 25.16963 -77.56030 9947 ft 283 kts 319°
2026-04-25 01:03 25.18520 -77.57413 10422 ft 294 kts 320°
2026-04-25 01:03 25.20178 -77.58832 10566 ft 315 kts 321°
2026-04-25 01:03 25.21984 -77.60339 10725 ft 336 kts 322°
2026-04-25 01:04 25.23913 -77.61920 10872 ft 355 kts 322°
2026-04-25 01:04 25.25937 -77.63562 11217 ft 366 kts 323°
2026-04-25 01:04 25.27901 -77.65146 11755 ft 369 kts 322°
2026-04-25 01:04 25.29976 -77.66814 12402 ft 370 kts 322°
2026-04-25 01:05 25.32066 -77.68494 13016 ft 373 kts 322°
2026-04-25 01:05 25.34173 -77.70189 13592 ft 376 kts 322°
2026-04-25 01:05 25.36294 -77.71896 14113 ft 379 kts 322°
2026-04-25 01:05 25.38434 -77.73619 14620 ft 381 kts 322°
2026-04-25 01:06 25.40584 -77.75351 15139 ft 384 kts 322°
2026-04-25 01:06 25.42747 -77.77097 15644 ft 386 kts 321°
2026-04-25 01:06 25.44850 -77.78949 16159 ft 388 kts 317°
2026-04-25 01:06 25.46902 -77.80893 16676 ft 389 kts 316°
2026-04-25 01:07 25.48853 -77.82789 17136 ft 392 kts 316°
2026-04-25 01:07 25.50908 -77.84799 17602 ft 395 kts 316°
2026-04-25 01:07 25.52974 -77.86815 18076 ft 398 kts 316°
2026-04-25 01:07 25.55059 -77.88842 18513 ft 400 kts 316°
2026-04-25 01:08 25.57160 -77.90875 18921 ft 402 kts 316°
2026-04-25 01:08 25.59277 -77.92919 19338 ft 404 kts 316°
2026-04-25 01:08 25.61401 -77.94966 19735 ft 406 kts 316°
2026-04-25 01:08 25.63512 -77.97000 20125 ft 409 kts 316°
2026-04-25 01:09 25.65669 -77.99078 20517 ft 411 kts 316°
2026-04-25 01:09 25.67834 -78.01164 20902 ft 414 kts 316°
2026-04-25 01:09 25.70016 -78.03267 20973 ft 414 kts 316°
2026-04-25 01:09 25.72188 -78.05361 20994 ft 414 kts 316°
2026-04-25 01:10 25.74364 -78.07460 20990 ft 415 kts 316°
2026-04-25 01:10 25.76539 -78.09560 21008 ft 415 kts 316°
2026-04-25 01:10 25.78732 -78.11679 21008 ft 420 kts 316°
2026-04-25 01:10 25.80940 -78.13814 20995 ft 421 kts 316°
2026-04-25 01:11 25.83144 -78.15944 20988 ft 420 kts 316°
2026-04-25 01:11 25.85347 -78.18075 20994 ft 419 kts 316°
2026-04-25 01:11 25.87545 -78.20202 21001 ft 420 kts 316°
2026-04-25 01:11 25.89763 -78.22352 21000 ft 427 kts 316°
2026-04-25 01:12 25.92024 -78.24544 21010 ft 434 kts 316°
2026-04-25 01:12 25.94289 -78.26742 21002 ft 440 kts 316°
2026-04-25 01:12 25.96601 -78.28985 20996 ft 441 kts 316°
2026-04-25 01:12 25.98902 -78.31217 20992 ft 438 kts 316°
2026-04-25 01:13 26.01194 -78.33441 20987 ft 437 kts 316°
2026-04-25 01:13 26.03481 -78.35662 20993 ft 436 kts 316°
2026-04-25 01:13 26.05770 -78.37886 20993 ft 436 kts 316°
2026-04-25 01:13 26.08051 -78.40105 20987 ft 436 kts 316°
2026-04-25 01:14 26.10336 -78.42329 21013 ft 437 kts 316°
2026-04-25 01:14 26.12627 -78.44560 21002 ft 437 kts 316°
2026-04-25 01:14 26.14917 -78.46791 20998 ft 438 kts 316°
2026-04-25 01:14 26.17217 -78.49033 21000 ft 438 kts 316°
2026-04-25 01:15 26.19514 -78.51273 21003 ft 438 kts 316°
2026-04-25 01:15 26.21807 -78.53511 20997 ft 439 kts 316°
2026-04-25 01:15 26.24100 -78.55750 21000 ft 439 kts 316°
2026-04-25 01:15 26.26394 -78.57991 21000 ft 439 kts 316°
2026-04-25 01:16 26.28691 -78.60236 21000 ft 439 kts 316°
2026-04-25 01:16 26.30985 -78.62479 20997 ft 439 kts 316°
2026-04-25 01:16 26.33279 -78.64724 21003 ft 439 kts 316°
2026-04-25 01:16 26.35566 -78.66963 21000 ft 438 kts 316°
2026-04-25 01:17 26.37861 -78.69211 21001 ft 438 kts 316°
2026-04-25 01:17 26.39380 -78.70702 21000 ft 439 kts 316°
2026-04-25 01:17 26.42445 -78.73708 21014 ft 439 kts 317°
2026-04-25 01:17 26.44739 -78.75958 21008 ft 439 kts 316°
2026-04-25 01:18 26.47002 -78.78179 21001 ft 439 kts 316°
2026-04-25 01:18 26.49293 -78.80429 21002 ft 439 kts 316°
2026-04-25 01:18 26.51584 -78.82680 21004 ft 439 kts 316°
2026-04-25 01:18 26.53877 -78.84935 21002 ft 439 kts 316°
2026-04-25 01:19 26.56165 -78.87187 21002 ft 438 kts 316°
2026-04-25 01:19 26.58453 -78.89439 21003 ft 438 kts 316°
2026-04-25 01:19 26.60740 -78.91692 21003 ft 438 kts 316°
2026-04-25 01:19 26.63030 -78.93949 21004 ft 438 kts 316°
2026-04-25 01:20 26.65315 -78.96203 21003 ft 438 kts 316°
2026-04-25 01:20 26.67602 -78.98458 21004 ft 438 kts 316°
2026-04-25 01:20 26.69885 -79.00712 21002 ft 438 kts 316°
2026-04-25 01:20 26.72178 -79.02978 21002 ft 438 kts 316°
2026-04-25 01:21 26.74462 -79.05235 21005 ft 438 kts 316°
2026-04-25 01:21 26.76748 -79.07496 21004 ft 439 kts 316°
2026-04-25 01:21 26.79037 -79.09761 21005 ft 439 kts 316°
2026-04-25 01:21 26.81327 -79.12028 21006 ft 440 kts 316°
2026-04-25 01:22 26.83619 -79.14298 20994 ft 440 kts 316°
2026-04-25 01:22 26.85913 -79.16572 20997 ft 440 kts 316°
2026-04-25 01:22 26.88185 -79.18825 21000 ft 441 kts 316°
2026-04-25 01:22 26.90479 -79.21101 20997 ft 441 kts 316°
2026-04-25 01:23 26.92776 -79.23381 21000 ft 441 kts 316°
2026-04-25 01:23 26.95066 -79.25657 21002 ft 441 kts 316°
2026-04-25 01:23 26.97364 -79.27940 20998 ft 441 kts 316°
2026-04-25 01:23 26.99655 -79.30219 21000 ft 440 kts 316°
2026-04-25 01:24 27.01956 -79.32509 20999 ft 440 kts 316°
2026-04-25 01:24 27.04244 -79.34787 21002 ft 440 kts 316°
2026-04-25 01:24 27.06532 -79.37066 21001 ft 440 kts 316°
2026-04-25 01:24 27.08820 -79.39347 21011 ft 440 kts 316°
2026-04-25 01:25 27.11112 -79.41634 21002 ft 440 kts 316°
2026-04-25 01:25 27.13400 -79.43917 20994 ft 440 kts 316°
2026-04-25 01:25 27.15687 -79.46201 20998 ft 440 kts 316°
2026-04-25 01:25 27.17975 -79.48487 21002 ft 440 kts 316°
2026-04-25 01:26 27.19493 -79.50003 21004 ft 440 kts 316°
2026-04-25 01:26 27.21669 -79.52390 20983 ft 434 kts 307°
2026-04-25 01:26 27.23160 -79.55238 20778 ft 414 kts 294°
2026-04-25 01:26 27.24347 -79.58104 20595 ft 395 kts 295°
2026-04-25 01:27 27.25533 -79.60811 20412 ft 381 kts 296°
2026-04-25 01:27 27.26729 -79.63476 20274 ft 382 kts 296°
2026-04-25 01:27 27.27926 -79.66126 20110 ft 378 kts 296°
2026-04-25 01:28 27.30297 -79.71365 19786 ft 374 kts 296°
2026-04-25 01:28 27.31474 -79.73972 19624 ft 373 kts 296°
2026-04-25 01:28 27.32643 -79.76567 19462 ft 372 kts 296°
2026-04-25 01:28 27.33809 -79.79157 19300 ft 371 kts 296°
2026-04-25 01:29 27.34973 -79.81746 19138 ft 371 kts 296°
2026-04-25 01:29 27.36138 -79.84338 18976 ft 371 kts 296°
2026-04-25 01:29 27.37300 -79.86928 18814 ft 371 kts 296°
2026-04-25 01:29 27.38463 -79.89521 18648 ft 371 kts 296°
2026-04-25 01:30 27.39624 -79.92109 18484 ft 371 kts 296°
2026-04-25 01:30 27.40783 -79.94698 18313 ft 370 kts 296°
2026-04-25 01:30 27.41943 -79.97287 18140 ft 370 kts 296°
2026-04-25 01:30 27.43086 -79.99842 17968 ft 370 kts 296°
2026-04-25 01:31 27.44240 -80.02421 17788 ft 369 kts 296°
2026-04-25 01:31 27.45390 -80.04995 17624 ft 367 kts 296°
2026-04-25 01:31 27.46536 -80.07561 17465 ft 366 kts 296°
2026-04-25 01:31 27.47677 -80.10117 17301 ft 363 kts 296°
2026-04-25 01:32 27.48805 -80.12646 17148 ft 361 kts 296°
2026-04-25 01:32 27.49934 -80.15178 16994 ft 362 kts 296°
2026-04-25 01:32 27.51063 -80.17713 16830 ft 362 kts 296°
2026-04-25 01:32 27.52196 -80.20258 16668 ft 361 kts 296°
2026-04-25 01:33 27.53320 -80.22783 16517 ft 360 kts 296°
2026-04-25 01:33 27.54441 -80.25304 16361 ft 360 kts 296°
2026-04-25 01:33 27.55562 -80.27825 16205 ft 359 kts 296°
2026-04-25 01:33 27.56679 -80.30339 16049 ft 359 kts 296°
2026-04-25 01:34 27.57779 -80.32817 15891 ft 358 kts 296°
2026-04-25 01:34 27.58891 -80.35325 15738 ft 358 kts 296°
2026-04-25 01:34 27.60002 -80.37830 15581 ft 357 kts 296°
2026-04-25 01:34 27.61110 -80.40331 15428 ft 356 kts 296°
2026-04-25 01:35 27.62215 -80.42826 15268 ft 356 kts 296°
2026-04-25 01:35 27.63320 -80.45324 15115 ft 355 kts 296°
2026-04-25 01:35 27.64419 -80.47807 14959 ft 354 kts 296°
2026-04-25 01:35 27.65518 -80.50295 14807 ft 353 kts 296°
2026-04-25 01:36 27.66613 -80.52773 14639 ft 353 kts 296°
2026-04-25 01:36 27.67705 -80.55246 14496 ft 351 kts 296°
2026-04-25 01:36 27.68794 -80.57714 14339 ft 350 kts 296°
2026-04-25 01:36 27.69876 -80.60167 14184 ft 349 kts 296°
2026-04-25 01:37 27.70958 -80.62624 14020 ft 349 kts 296°
2026-04-25 01:37 27.72035 -80.65069 13868 ft 348 kts 296°
2026-04-25 01:37 27.73110 -80.67513 13708 ft 347 kts 296°
2026-04-25 01:37 27.74180 -80.69945 13542 ft 346 kts 296°
2026-04-25 01:38 27.75251 -80.72380 13395 ft 345 kts 296°
2026-04-25 01:38 27.76317 -80.74806 13231 ft 345 kts 296°
2026-04-25 01:38 27.77386 -80.77224 13070 ft 344 kts 297°
2026-04-25 01:38 27.78623 -80.79535 12915 ft 343 kts 303°
2026-04-25 01:39 27.79966 -80.81724 12763 ft 343 kts 305°
2026-04-25 01:39 27.81343 -80.83915 12613 ft 342 kts 305°
2026-04-25 01:39 27.82712 -80.86108 12465 ft 341 kts 304°
2026-04-25 01:39 27.84067 -80.88307 12315 ft 341 kts 304°
2026-04-25 01:40 27.85410 -80.90511 12166 ft 340 kts 304°
2026-04-25 01:40 27.86748 -80.92722 12002 ft 340 kts 304°
2026-04-25 01:40 27.88081 -80.94931 11860 ft 340 kts 304°
2026-04-25 01:40 27.89410 -80.97138 11710 ft 340 kts 304°
2026-04-25 01:41 27.90740 -80.99347 11573 ft 339 kts 304°
2026-04-25 01:41 27.92068 -81.01555 11423 ft 339 kts 304°
2026-04-25 01:41 27.93589 -81.03568 11245 ft 339 kts 321°
2026-04-25 01:41 27.95619 -81.04897 11127 ft 337 kts 337°
2026-04-25 01:42 27.97817 -81.05835 10985 ft 337 kts 339°
2026-04-25 01:42 27.99999 -81.06711 10833 ft 336 kts 340°
2026-04-25 01:42 28.02160 -81.07587 10667 ft 321 kts 339°
2026-04-25 01:42 28.04210 -81.08438 10511 ft 305 kts 339°
2026-04-25 01:43 28.06148 -81.09255 10373 ft 290 kts 339°
2026-04-25 01:43 28.07993 -81.10036 10255 ft 276 kts 339°
2026-04-25 01:43 28.09752 -81.10798 10141 ft 266 kts 338°
2026-04-25 01:43 28.11476 -81.11559 10053 ft 268 kts 338°
2026-04-25 01:44 28.13221 -81.12330 9949 ft 270 kts 338°
2026-04-25 01:44 28.14983 -81.13108 9840 ft 273 kts 338°
2026-04-25 01:44 28.16751 -81.13889 9707 ft 273 kts 338°
2026-04-25 01:44 28.18521 -81.14670 9580 ft 273 kts 338°
2026-04-25 01:45 28.20294 -81.15452 9445 ft 273 kts 338°
2026-04-25 01:45 28.22040 -81.16222 9338 ft 273 kts 338°
2026-04-25 01:45 28.23805 -81.17001 9215 ft 272 kts 338°
2026-04-25 01:45 28.25565 -81.17777 9084 ft 271 kts 338°
2026-04-25 01:46 28.27334 -81.18501 8955 ft 271 kts 347°
2026-04-25 01:46 28.29212 -81.18651 8821 ft 271 kts 359°
2026-04-25 01:46 28.31102 -81.18641 8659 ft 272 kts 358°
2026-04-25 01:46 28.32993 -81.18651 8506 ft 272 kts 358°
2026-04-25 01:47 28.34871 -81.18676 8339 ft 267 kts 358°
2026-04-25 01:47 28.36713 -81.18706 8181 ft 261 kts 357°
2026-04-25 01:47 28.38512 -81.18738 8018 ft 256 kts 357°
2026-04-25 01:47 28.40279 -81.18763 7805 ft 253 kts 358°
2026-04-25 01:48 28.42029 -81.18777 7585 ft 250 kts 358°
2026-04-25 01:48 28.43761 -81.18790 7362 ft 247 kts 358°
2026-04-25 01:48 28.45475 -81.18803 7146 ft 245 kts 357°
2026-04-25 01:48 28.47149 -81.18816 6929 ft 242 kts 357°
2026-04-25 01:49 28.48832 -81.18829 6710 ft 240 kts 357°
2026-04-25 01:49 28.50497 -81.18843 6496 ft 239 kts 357°
2026-04-25 01:49 28.52155 -81.18857 6256 ft 237 kts 357°
2026-04-25 01:49 28.53796 -81.18870 6023 ft 235 kts 357°
2026-04-25 01:50 28.55470 -81.18918 5513 ft 245 kts 356°
2026-04-25 01:50 28.57168 -81.19010 5093 ft 247 kts 355°
2026-04-25 01:50 28.58894 -81.19111 4716 ft 248 kts 355°
2026-04-25 01:50 28.60599 -81.19208 4431 ft 242 kts 355°
2026-04-25 01:51 28.62240 -81.19281 4240 ft 230 kts 357°
2026-04-25 01:51 28.63807 -81.19334 4123 ft 222 kts 357°
2026-04-25 01:51 28.65358 -81.19356 4039 ft 224 kts 358°
2026-04-25 01:51 28.66934 -81.19396 4007 ft 230 kts 357°
2026-04-25 01:52 28.68523 -81.19400 3989 ft 226 kts
2026-04-25 01:52 28.70083 -81.19376 3979 ft 222 kts
2026-04-25 01:52 28.71631 -81.19368 3989 ft 222 kts 359°
2026-04-25 01:52 28.73162 -81.19379 3995 ft 224 kts 359°
2026-04-25 01:53 28.74728 -81.19395 3995 ft 225 kts 359°
2026-04-25 01:53 28.76292 -81.19439 3990 ft 226 kts 353°
2026-04-25 01:53 28.77463 -81.19887 3981 ft 225 kts 326°
2026-04-25 01:53 28.78477 -81.21209 3985 ft 225 kts 293°
2026-04-25 01:54 28.78677 -81.22948 3988 ft 225 kts 259°
2026-04-25 01:54 28.77997 -81.24523 3994 ft 225 kts 226°
2026-04-25 01:54 28.76688 -81.25489 4009 ft 225 kts 205°
2026-04-25 01:54 28.75242 -81.26206 3997 ft 228 kts 203°
2026-04-25 01:55 28.73775 -81.26909 3996 ft 229 kts 203°
2026-04-25 01:55 28.72300 -81.27610 3994 ft 230 kts 203°
2026-04-25 01:55 28.70816 -81.28304 3987 ft 231 kts 199°
2026-04-25 01:55 28.69236 -81.28527 3999 ft 229 kts 177°
2026-04-25 01:56 28.67641 -81.28470 3988 ft 227 kts 180°
2026-04-25 01:56 28.66108 -81.28471 3965 ft 212 kts 180°
2026-04-25 01:56 28.64693 -81.28466 3949 ft 194 kts 181°
2026-04-25 01:56 28.63377 -81.28456 3758 ft 193 kts 181°
2026-04-25 01:57 28.60724 -81.28430 3324 ft 186 kts 179°
2026-04-25 01:57 28.59478 -81.28416 3055 ft 173 kts 179°
2026-04-25 01:57 28.58288 -81.28405 2853 ft 171 kts 179°
2026-04-25 01:58 28.57080 -81.28392 2616 ft 174 kts 177°
2026-04-25 01:58 28.55871 -81.28376 2377 ft 172 kts 177°
2026-04-25 01:58 28.54681 -81.28364 2143 ft 170 kts 178°
2026-04-25 01:58 28.53495 -81.28352 1933 ft 169 kts 176°
2026-04-25 01:59 28.52357 -81.28340 1691 ft 158 kts 175°
2026-04-25 01:59 28.51300 -81.28329 1466 ft 148 kts 175°
2026-04-25 01:59 28.50284 -81.28317 1318 ft 147 kts 175°
2026-04-25 01:59 28.49240 -81.28305 1139 ft 151 kts 175°
2026-04-25 02:00 28.48179 -81.28294 936 ft 152 kts 176°
2026-04-25 02:00 28.47116 -81.28278 748 ft 156 kts 175°
2026-04-25 02:00 28.46025 -81.28261 490 ft 157 kts 175°
2026-04-25 02:00 28.44957 -81.28262 299 ft 150 kts 176°
2026-04-25 02:01 28.43944 -81.28255 116 ft 138 kts 177°
2026-04-25 02:01 28.43109 -81.28245 100 ft 92 kts 179°
2026-04-25 02:01 28.42687 -81.28242 104 ft 29 kts 186°
2026-04-25 02:01 28.42588 -81.28270 106 ft 13 kts 204°
2026-04-25 02:02 28.42528 -81.28343 105 ft 10 kts 248°
2026-04-25 02:02 28.42522 -81.28361 106 ft 10 kts 249°
2026-04-25 02:02 28.42472 -81.28517 104 ft 30 kts 251°
2026-04-25 02:02 28.42396 -81.28763 105 ft 33 kts 251°
2026-04-25 02:03 28.42324 -81.28998 107 ft 31 kts 251°
2026-04-25 02:03 28.42287 -81.29216 106 ft 25 kts 266°
2026-04-25 02:03 28.42285 -81.29391 103 ft 20 kts 269°
2026-04-25 02:03 28.42284 -81.29435 102 ft 0 kts 268°
2026-04-25 02:04 28.42283 -81.29464 100 ft 10 kts 268°
2026-04-25 02:04 28.42283 -81.29589 98 ft 21 kts 270°
2026-04-25 02:04 28.42288 -81.29761 99 ft 22 kts 292°
2026-04-25 02:04 28.42427 -81.29793 101 ft 21 kts 358°
2026-04-25 02:05 28.42572 -81.29796 102 ft 21 kts 359°
2026-04-25 02:05 28.42713 -81.29796 102 ft 20 kts 360°
2026-04-25 02:05 28.42849 -81.29798 102 ft 19 kts 359°
2026-04-25 02:05 28.42981 -81.29799 102 ft 19 kts 358°
2026-04-25 02:06 28.43108 -81.29801 102 ft 18 kts 359°
2026-04-25 02:06 28.43238 -81.29802 102 ft 19 kts 360°
2026-04-25 02:06 28.43335 -81.29836 101 ft 14 kts 288°
2026-04-25 02:06 28.43391 -81.29926 100 ft 14 kts 341°
2026-04-25 02:07 28.43431 -81.29996 100 ft 11 kts 283°
2026-04-25 02:07 28.43431 -81.30000 100 ft 0 kts 283°